This is the latest recevied weather packets stored in our database for station/object K4ZZR. If no packets are shown the sender has not sent any weather packets the latest 10 day(s).
| Time | Temp. | Humidity | Pressure | Rain* | Wind** | Luminosity | Snow |
|---|---|---|---|---|---|---|---|
| 1777875572 | 22.22° C | 98% | 1014.6 hPa | 0 mm | - | 0 W/m² | - |
| 1777875268 | 22.22° C | 98% | 1014.6 hPa | 0 mm | - | 0 W/m² | - |
| 1777874966 | 22.78° C | 97% | 1014.4 hPa | 0 mm | - | 0 W/m² | - |
| 1777874661 | 22.22° C | 98% | 1014.3 hPa | 0 mm | - | 0 W/m² | - |
| 1777874358 | 22.22° C | 98% | 1014.4 hPa | 0 mm | - | 0 W/m² | - |
| 1777874056 | 22.22° C | 99% | 1014.5 hPa | 0 mm | - | 0 W/m² | - |
| 1777873754 | 22.22° C | 99% | 1014.3 hPa | 0.51 mm | - | 0 W/m² | - |
| 1777873450 | 22.22° C | 98% | 1014.4 hPa | 0.51 mm | - | 0 W/m² | - |
| 1777873147 | 22.22° C | 98% | 1014.6 hPa | 0 mm | - | 0 W/m² | - |
| 1777872844 | 22.22° C | 98% | 1014.6 hPa | 0.51 mm | - | 0 W/m² | - |
| 1777872542 | 22.22° C | 98% | 1014.4 hPa | 4.83 mm | - | 0 W/m² | - |
| 1777872239 | 22.22° C | 97% | 1014.7 hPa | 9.65 mm | - | 0 W/m² | - |
| 1777871936 | 22.78° C | 95% | 1014.6 hPa | 4.83 mm | - | 0 W/m² | - |
| 1777871632 | 22.78° C | 94% | 1014.9 hPa | 0 mm | - | 0 W/m² | - |
| 1777871329 | 22.78° C | 95% | 1015.1 hPa | 0 mm | - | 0 W/m² | - |
| 1777871026 | 22.78° C | 95% | 1015 hPa | 0 mm | - | 0 W/m² | - |
| 1777870723 | 22.78° C | 95% | 1015 hPa | 0 mm | - | 0 W/m² | - |
| 1777870418 | 22.78° C | 94% | 1014.8 hPa | 0 mm | - | 0 W/m² | - |
| 1777870116 | 22.78° C | 95% | 1014.9 hPa | 0 mm | - | 0 W/m² | - |
| 1777869813 | 22.78° C | 95% | 1014.6 hPa | 0 mm | - | 0 W/m² | - |
| 1777869510 | 22.78° C | 95% | 1015 hPa | 0 mm | - | 0 W/m² | - |
| 1777869207 | 22.78° C | 95% | 1014.9 hPa | 0 mm | - | 0 W/m² | - |
| 1777868904 | 22.78° C | 94% | 1014.9 hPa | 0 mm | - | 0 W/m² | - |
| 1777868600 | 23.33° C | 92% | 1015.2 hPa | 0 mm | - | 0 W/m² | - |
| 1777868297 | 23.33° C | 90% | 1015 hPa | 0 mm | - | 0 W/m² | - |
* Rain latest hour (hover to see other rain measurements)
** Current wind speed in m/s (hover to see current wind gust speed)